Location: Newark
(29.9790°N, 31.1340°E)
Time: 10:30:59
(UTC+00:00)

Vanguard 3 - Pass Details

Date: 24 January 2020
Orbit: 508 x 3263 km, 33.3° (Epoch: 19 February)

Event Time Altitude Azimuth Distance (km) Brightness Sun altitude
Rises 17:10:23 0° 264° (W) 7,186 13.5 -22.7°
Reaches altitude 10° 17:15:14 10° 265° (W) 6,202 12.7 -23.7°
Maximum altitude 17:35:16 80° 353° (N) 2,803 9.6 -28.0°
Enters shadow 17:41:41 44° 73° (ENE) 3,064 9.5 -29.4°
